Home   Weather   Meissen   Past weeks

Flag for Germany Past Weather in Meissen, Saxony, Germany — Yesterday and Last 2 Weeks

Now
25 °F

Light snow. Ice fog.


Feels Like: 19 °F
Forecast: 12 / 22 °F
Wind: 5 mph from North

Location: Dresden-Klotzsche

Current Time: Jan 17, 2017 at 12:04:25 pm

Latest Report: Jan 17, 2017 at 11:20 am


Visibility: 2 mi

Pressure: 30.54 "Hg

Humidity: 100%

Dew Point: 25 °F

Location of MeissenLocation

Past Weather in Meissen — Graph

°F

Meissen Temperature Yesterday

Maximum temperature yesterday: 28 °F (at 12:20 am)
Minimum temperature yesterday: 23 °F (at 4:50 pm)
Average temperature yesterday: 26 °F

High & Low Weather Summary for the Past Weeks

 TemperatureHumidityPressure
High41 °F (Jan 13, 6:20 am)100% (Jan 2, 10:20 am)30.69 "Hg (Jan 2, 10:20 am)
Low10 °F (Jan 6, 4:50 am)57% (Jan 13, 7:20 am)29.12 "Hg (Jan 13, 5:50 am)
Average28 °F89%30.01 "Hg
* Reported Jan 2 10:20 am — Jan 17 10:50 am, Meissen, Weather by CustomWeather, © 2017

Note: Actual official high and low records may vary slightly from our data, if they occured in-between our weather recording intervals... More about our weather records

Advertising

Meissen Weather History for the Previous 24 Hours

Scroll right to see more
 ConditionsComfort  
Time TempWeatherWind HumidityBarometerVisibility
10:50 am
Tue, Jan 17
25 °FLight snow. Ice fog.3 mph100%30.54 "Hg2 mi
10:20 am25 °FCold.3 mph100%30.54 "HgN/A
9:50 am25 °FLight snow. Ice fog.3 mph100%30.51 "Hg1 mi
9:20 am25 °FLight snow. Ice fog.5 mph100%30.51 "Hg1 mi
8:50 am25 °FLight snow. Ice fog.2 mph100%30.51 "Hg1 mi
8:20 am25 °FLight snow. Ice fog.3 mph100%30.48 "Hg1 mi
7:50 am25 °FLight snow. Ice fog.5 mph100%30.48 "Hg1 mi
7:20 am25 °FLight snow. Ice fog.5 mph100%30.48 "Hg2 mi
6:50 am25 °FLight snow. Ice fog.5 mph100%30.45 "Hg2 mi
6:20 am25 °FLight snow. Ice fog.3 mph100%30.45 "Hg2 mi
5:50 am25 °FLight snow. Ice fog.3 mph100%30.45 "Hg2 mi
5:20 am25 °FLight snow. Ice fog.5 mph100%30.45 "Hg2 mi
4:50 am25 °FLight snow. Ice fog.3 mph100%30.45 "Hg2 mi
4:20 am25 °FLight snow. Ice fog.3 mph100%30.42 "Hg2 mi
3:50 am25 °FIce fog.2 mph100%30.42 "Hg2 mi
3:20 am25 °FLow clouds.2 mph100%30.42 "Hg4 mi
2:50 am25 °FLow clouds.3 mph100%30.42 "Hg4 mi
2:20 am25 °FIce fog.3 mph100%30.42 "Hg3 mi
1:50 am25 °FLight snow. Ice fog.3 mph100%30.39 "Hg3 mi
1:20 am25 °FLight snow. Low clouds.3 mph100%30.39 "Hg4 mi
12:50 am25 °FLight snow. Low clouds.2 mph100%30.39 "Hg6 mi
12:20 am25 °FLight snow. Low clouds.1 mph93%30.39 "Hg3 mi
11:50 pm
Mon, Jan 16
25 °FLight snow. Low clouds.2 mph93%30.39 "Hg2 mi
11:20 pm25 °FLight snow. Low clouds.3 mph93%30.39 "Hg2 mi
10:50 pm25 °FLight snow. Low clouds.3 mph93%30.36 "Hg3 mi
10:20 pm25 °FLight snow. Mostly cloudy.2 mph93%30.36 "Hg2 mi
9:50 pm25 °FLight snow. Low clouds.3 mph93%30.36 "Hg2 mi
9:20 pm23 °FLight snow. Low clouds.3 mph100%30.36 "Hg3 mi
8:50 pm23 °FLight snow. Low clouds.3 mph100%30.36 "Hg4 mi
8:20 pm23 °FLight snow. Low clouds.3 mph100%30.33 "HgN/A
7:50 pm23 °FMostly cloudy.3 mph100%30.33 "HgN/A
7:20 pm23 °FPartly cloudy.6 mph93%30.33 "HgN/A
6:50 pm23 °FPassing clouds.6 mph93%30.30 "HgN/A
6:20 pm23 °FMostly cloudy.7 mph93%30.30 "HgN/A
5:50 pm23 °FLight snow. Passing clouds.7 mph100%30.30 "HgN/A
5:20 pm23 °FPartly cloudy.5 mph100%30.27 "HgN/A
4:50 pm23 °FLight snow. Ice fog.6 mph100%30.27 "Hg3 mi
4:20 pm25 °FLight snow. Ice fog.8 mph93%30.27 "Hg2 mi
3:50 pm25 °FLight snow. Ice fog.8 mph100%30.24 "Hg2 mi
3:20 pm27 °FPartly sunny.7 mph93%30.24 "HgN/A
2:50 pm27 °FBroken clouds.6 mph100%30.24 "HgN/A
2:20 pm27 °FPartly sunny.5 mph100%30.21 "HgN/A
1:50 pm27 °FPartly sunny.7 mph100%30.21 "HgN/A
1:20 pm27 °FPartly sunny.7 mph100%30.21 "HgN/A
12:50 pm28 °FPartly sunny.7 mph93%30.21 "Hg5 mi
12:20 pm28 °FPartly sunny.7 mph93%30.21 "Hg4 mi
Weather by CustomWeather, © 2017

See weather overviewHow to use our weather pages